Location: Chervonnoye
(48.6000°N, 34.4000°E)
Time: 20:03:59
(UTC+00:00)

SKYMED 2 - Pass Details

Date: 23 November 2020
Orbit: 621 x 623 km, 97.9° (Epoch: 27 January)

Event Time Altitude Azimuth Distance (km) Brightness Sun altitude
Exits shadow 15:45:28 18° 23° (NNE) 1,528 5.2 -17.9°
Maximum altitude 15:48:35 63° 102° (ESE) 697 3.5 -18.4°
Drops below altitude 10° 15:52:53 10° 183° (S) 1,990 6.3 -19.1°
Sets 15:55:05 0° 187° (S) 2,892 7.2 -19.5°
